Location: Garel
(45.0754°N, 1.9878°E)
Time: 13:05:45
(UTC+00:00)

Daily predictions for brighter satellites

Satellite Brightness Start Highest point End
(mag) Time Altitude Azimuth Time Altitude Azimuth Time Altitude Azimuth
Ariane Rocket 3.3 20:07:57 10° SE 20:12:54 54° ENE 20:17:52 10° N
Cosmos 1954 Rocket 4.2 20:12:48 10° NNW 20:18:05 77° WSW 20:23:16 10° SSE
Cosmos 1544 Rocket 3.6 20:15:45 10° N 20:20:04 63° E 20:24:22 10° SSE
Lacrosse 5 rocket 3.1 20:17:53 10° WNW 20:20:59 23° SW 20:24:12 10° S
Cosmos 1656 3.8 20:16:55 10° NNW 20:22:22 63° ENE 20:27:51 10° SE
GEOS 3 Rocket 3.7 20:18:05 10° SE 20:23:11 82° SW 20:28:21 10° NW
ATLAS 2AS CENTAUR R/B 3.0 20:21:44 10° NW 20:28:45 68° WSW 20:35:18 10° SSE
MetOp-B 4.3 20:24:53 10° SSE 20:30:10 66° ENE 20:35:30 10° N
Cosmos 1850 Rocket 4.4 20:26:14 10° NNW 20:31:20 51° ENE 20:36:19 10° SE
PSLV R/B 4.1 20:28:24 10° NNE 20:32:34 82° WNW 20:36:44 10° SSW
Cosmos 1980 Rocket 3.8 20:29:11 10° N 20:33:43 24° NE 20:38:12 10° E
Cosmos 1697 Rocket 3.5 20:29:04 10° NNW 20:34:21 40° NE 20:39:32 10° SE
USA 32 4.0 20:29:12 10° S 20:34:24 79° E 20:39:39 10° N
SL-8 R/B 3.8 20:31:23 10° WNW 20:36:12 83° NNE 20:41:02 10° ESE
TSX-5 4.4 20:33:03 10° SSW 20:37:30 82° ESE 20:43:22 10° NNE
SPOT 1/Viking Rocket 3.8 20:35:25 10° S 20:40:32 74° WSW 20:45:44 10° NNW
COSMOS 2406 4.1 20:37:33 10° SSE 20:42:24 29° ESE 20:47:16 10° NE
Spot 2 Rocket 4.1 20:38:47 11° SE 20:43:26 43° ENE 20:48:16 10° N
Cosmos 1025 Rocket 4.3 20:40:08 10° SSW 20:44:13 43° WNW 20:48:20 10° N
X-37B 0.2 20:41:32 10° W 20:44:20 83° S 20:47:01 11° E
SPOT 5 3.0 20:49:45 13° SE 20:53:23 47° ENE 20:57:33 10° N
Cosmos 1703 3.3 20:51:36 10° S 20:55:23 61° E 20:59:12 10° NNE
Cosmos 2084 Rocket 4.4 20:53:08 10° NNW 20:56:45 35° NE 21:00:03 12° ESE
RESURS DK-1 2.3 20:53:54 10° NNW 20:58:04 87° ENE 21:01:19 16° SSE
Cosmos 1452 Rocket 3.6 20:52:52 10° SSW 20:58:08 87° WNW 21:03:26 10° NNE
Cosmos 1833 Rocket 2.7 20:52:47 10° SSW 20:58:19 64° ESE 21:03:53 10° NNE
Delta 2 Rocket 4.5 20:57:08 10° SW 20:59:20 16° S 20:59:57 16° SSE
Terra 2.5 20:56:28 14° SE 21:00:06 40° ENE 21:04:33 10° N
CZ-4B R/B 2.6 20:59:58 10° N 21:02:39 35° WNW 21:05:20 10° SW
Cosmos 1110 Rocket 4.0 20:58:55 10° S 21:04:07 69° ESE 21:09:25 10° NNE
Helios 1A Rocket 3.2 21:01:06 16° SE 21:04:10 55° ENE 21:08:11 10° N
ERS-1 Rocket 3.2 21:02:34 15° SSE 21:06:36 60° ENE 21:11:34 10° N
Resurs 01 Rocket 3.2 21:03:13 10° SSW 21:07:11 31° W 21:11:10 10° NNW
Cosmos 2228 2.9 21:07:54 10° N 21:12:09 74° E 21:15:16 18° SSE
Cosmos 2184 Rocket 4.0 21:09:58 10° N 21:16:11 84° W 21:21:54 13° S
Cosmos 1408 4.0 21:16:14 18° ESE 21:17:03 20° E 21:19:36 10° NE
Lacrosse 5 3.6 21:14:22 10° WNW 21:18:15 22° WSW 21:22:04 10° S
Cosmos 968 Rocket 4.1 21:18:15 10° N 21:23:16 45° ENE 21:26:36 20° SE
Cosmos 1900 4.4 21:18:09 10° NNW 21:23:21 89° NE 21:26:45 22° SSE
Cosmos 1328 3.9 21:22:05 20° SSE 21:24:39 56° E 21:28:34 10° NNE
USA 276 3.9 21:24:27 10° WNW 21:27:11 30° N 21:29:56 10° ENE
Cosmos 2360 4.3 21:26:10 10° NNW 21:31:56 80° WSW 21:35:50 21° SSE
Cosmos 2082 Rocket 2.4 21:27:22 14° S 21:32:09 50° ESE 21:37:39 10° NE
Cosmos 1867 4.1 21:27:26 10° NNW 21:32:47 51° NE 21:36:30 19° ESE
USA 245 4.4 21:30:03 12° SSW 21:33:31 37° WSW 21:36:46 10° NNW
USA 267 3.7 21:32:11 10° ENE 21:38:08 36° SE 21:44:04 10° SSW
ARIANE 5 R/B 2.7 21:35:43 25° SSE 21:38:13 68° ENE 21:42:38 10° N
Cosmos 1606 Rocket 3.5 21:36:32 10° N 21:40:53 85° W 21:43:23 25° S
GP-B 3.9 21:37:49 10° NNE 21:41:55 35° E 21:43:34 26° SE
Meteor 1-21 Rocket 4.4 21:37:16 10° SSW 21:42:49 73° WNW 21:48:32 10° N
Cosmos 2341 Rocket 4.3 21:37:03 10° N 21:43:16 56° ENE 21:47:01 24° SSE
SAR-Lupe-4 4.5 21:43:04 10° NE 21:46:17 31° E 21:46:46 29° ESE
Cosmos 192 4.2 21:43:00 13° SSW 21:47:20 84° ESE 21:52:16 10° NNE
Okean 1-7 Rocket 4.3 21:58:40 30° SE 21:59:56 37° E 22:04:04 10° NNE
SAR-Lupe-1 4.1 21:59:23 10° NNE 22:02:55 56° E 22:03:39 45° SSE
Cosmos 1892 2.6 22:02:06 42° SSE 22:03:10 65° E 22:06:55 10° NNE
Cosmos 1726 Rocket 3.8 21:59:18 10° NNW 22:03:34 63° W 22:05:40 29° SSW
Cosmos 2181 Rocket 4.1 22:07:21 28° SSE 22:10:36 61° E 22:16:44 10° NNE
Cosmos 1633 4.2 22:12:09 20° E 22:12:09 20° E 22:14:32 10° NE
USA 234 4.2 22:06:21 10° E 22:12:31 46° NNE 22:18:43 10° NW
Cosmos 1992 Rocket 4.0 22:15:18 33° S 22:17:31 60° ESE 22:22:41 10° NNE
SL-16 R/B 3.2 22:12:54 10° NNW 22:18:10 38° NE 22:21:23 21° ESE
Cosmos 1697 Rocket 3.8 22:13:13 10° NW 22:18:12 33° WSW 22:21:16 20° SSW
Cosmos 1980 Rocket 2.3 22:12:34 10° NNW 22:18:14 67° WSW 22:20:52 32° S
Cosmos 1486 Rocket 4.2 22:13:41 10° NNW 22:18:52 60° ENE 22:21:05 33° SE
Cosmos 1932 4.4 22:13:39 13° SSW 22:19:17 78° ESE 22:25:37 10° NE
X-37B 2.5 22:17:09 10° W 22:18:13 18° WSW 22:18:13 18° WSW
Cosmos 2369 4.1 22:16:13 10° NNW 22:21:49 56° WSW 22:24:30 30° S
COSMOS 2406 4.2 22:20:54 10° SW 22:26:27 48° WNW 22:32:01 10° NNE
ATLAS 5 CENTAUR R/B 1.0 22:29:23 51° SSW 22:30:14 78° SE 22:34:20 10° NE
Cosmos-2242 4.1 22:26:26 10° N 22:30:15 31° ENE 22:31:12 28° E
Cosmos 1602 Rocket 3.9 22:32:11 41° ESE 22:32:53 45° E 22:37:01 10° NNE
In-Cosmos 22 Rocket 4.1 22:30:23 31° S 22:33:11 88° W 22:38:39 10° N
Cosmos 1869 3.2 22:30:34 10° N 22:34:28 79° E 22:35:09 58° SSE
Terra 3.6 22:35:21 16° SW 22:37:59 24° W 22:41:51 10° NW
Meteor 1-27 4.1 22:34:46 10° NNW 22:40:21 83° W 22:42:35 38° S
ALOS 2 3.6 22:39:48 30° ESE 22:41:04 36° ENE 22:45:05 10° N
FALCON 9 DEB 3.2 22:38:52 10° NW 22:42:07 65° NNE 22:42:17 64° NE
ASTEX 1 3.9 22:38:25 10° N 22:43:19 55° W 22:45:50 27° SW
Cosmos 1354 Rocket 4.5 22:41:53 10° NNW 22:47:05 52° ENE 22:49:06 34° ESE
BREEZE-M DEB (TANK) 4.1 22:44:55 10° WNW 22:48:02 60° NNE 22:59:20 10° E
ADEOS Rocket 3.8 22:45:43 28° SE 22:49:43 58° ENE 22:57:17 10° N
SL-8 Rocket 4.3 22:43:53 10° NNW 22:49:58 57° W 22:53:01 29° SSW
Cosmos 1825 2.4 22:49:40 49° SW 22:50:22 60° W 22:54:05 10° N
Cosmos 2058 Rocket 4.3 22:47:00 10° NNW 22:51:00 34° W 22:52:35 26° SW
Cosmos 1408 4.4 22:50:12 18° WSW 22:51:34 23° WNW 22:54:26 10° NNW
Cosmos 2322 Rocket 2.8 22:48:13 10° NNW 22:53:45 50° ENE 22:56:24 29° ESE
Cosmos 1626 Rocket 3.7 22:54:43 44° SW 22:55:57 66° W 23:00:17 10° N
Cosmos 1503 Rocket 4.0 22:51:35 10° NNW 22:56:55 76° ENE 22:58:35 44° SE
USA 276 2.8 23:00:17 10° WNW 23:02:50 50° NNW 23:02:50 50° NNW
Cosmos 2278 4.2 22:59:00 10° NW 23:04:29 48° WSW 23:06:17 36° SSW
Cosmos 1825 Rocket 3.9 23:08:18 45° ESE 23:08:40 46° E 23:12:50 10° NNE
Cosmos 2333 Rocket 3.8 23:03:47 10° N 23:08:47 29° NE 23:12:52 14° ESE
Gbstr 26 Del rocket 3.7 23:11:08 39° ESE 23:11:08 39° ESE 23:14:57 10° ENE
SJ 16-02 1.5 23:07:05 10° NNW 23:11:30 65° ENE 23:12:19 53° ESE
Cosmos 1340 Rocket 3.9 23:13:04 31° E 23:13:04 31° E 23:16:28 10° NNE
Meteor 2-20 4.4 23:13:52 40° S 23:16:18 87° W 23:22:26 10° N
Cosmos 2082 Rocket 4.0 23:11:33 10° WSW 23:16:29 29° NW 23:21:26 10° N
H-2A R/B 3.3 23:16:11 10° NNE 23:20:25 87° ESE 23:20:55 68° S
USA 267 3.4 23:14:56 10° NE 23:21:27 74° NNW 23:27:58 10° WSW
Cosmos 2058 2.9 23:26:08 65° SE 23:26:25 68° E 23:30:35 10° NNE
Cosmos 2221 3.7 23:23:27 10° N 23:27:22 32° ENE 23:28:17 29° E
Cosmos 1606 2.6 23:24:20 10° N 23:28:12 84° W 23:28:16 84° WSW
Spot 4 4.3 23:27:39 42° SW 23:28:38 48° W 23:33:16 10° NNW
Cosmos 2360 Rocket 2.5 23:24:02 10° NNW 23:29:41 61° ENE 23:32:00 35° SE
Cosmos 1934 Rocket 4.1 23:24:47 10° N 23:30:50 63° E 23:33:06 39° SE
Cosmos 1833 4.4 23:39:57 47° SSE 23:41:07 56° ESE 23:46:35 10° NNE
Cosmos 44 3.4 23:41:21 50° ESE 23:41:21 50° ESE 23:45:43 10° NE
Meteor 2-2 Rocket 4.3 23:36:31 10° N 23:42:35 86° ENE 23:44:36 45° SSE
Meteor 2-20 Rocket 4.5 23:42:26 40° SSW 23:44:44 74° W 23:50:52 10° N
Cosmos 2237 4.2 23:39:39 10° NNW 23:45:22 70° WSW 23:46:53 49° S
Cosmos 1633 4.2 23:45:56 23° W 23:46:16 23° WNW 23:49:08 10° NNW
Cosmos 1339 Rocket 4.5 23:50:04 44° SSE 23:52:09 75° E 23:58:17 10° NNE
